Rbgn^[z[y[W
メイン
   新天体発見情報
     Comet C/2021 C1 (Rankin)
投稿するにはまず登録を

スレッド表示 | 古いものから 前のトピック | 次のトピック | 下へ
投稿者 スレッド
佐藤裕久
投稿日時: 2021-3-13 12:18
モデレータ
登録日: 2005-6-12
居住地: 日本
投稿: 2701
オンライン
Comet C/2021 C1 (Rankin)

David Rankinの通報によると、2月11日UT、Mt Lemmonサーベイの1.5-m 反射望遠鏡で得た
CCD画像から彗星を発見した。7"のコマとp.a. 220°に扇状の尾がある。
小惑星センターのPCCP webpageに公表後、Y. Ramanjooloo (ハワイ大学天文学研究所は、
2月11.59日UT、HaleakalaにあるPan-STARRS1 1.8-m Ritchey-Chretien反射望遠鏡で得た
45秒4枚のw-バンド露出で[明らかな独立発見]、明らかに広く、p.a. 250°に3".5の長さの
尾[イメージの2つは、どちらも薄いように見える。p.a. 237°に3".3の真直ぐな尾とp.a. 
275°に2".8の広く、曲がった尾]と2".7の集光したコマが見える)や佐藤英貴氏(東京都文京
区, 2月11.7日、60秒露出12枚のスタック, 0.51-m f/6.8 アストログラフ, Siding Spring, 
NSW, 遠隔操作:強く集光した8"のコマが見えるが尾はない。4".9の円形範囲で測定した光度
は19.7等であった)らCCD位置観測者によって彗星状と観測された。

彗星機能の報告は次の通り:

OC   Date        Reporter           Coma    Tail    PA          Exposures
F51  2021-02-11  Y. Ramanjooloo     2".7    3".5    250           4x45s
Q62  2021-02-12  H. Sato            8"                           12x60s
G40  2021-02-14  B. Lutkenhoner     8"                           41x50s
N51  2021-02-21  K. Sharma          2"       9"     200           6x300s

発見位置は次のとおり、

     2021 UT             R.A. (2000) Decl.       Mag.   Observer
     Feb. 11.44305   13 40 01.72   -17 35 31.0   19.7   Rankin
          11.44821   13 40 01.35   -17 35 26.8   19.4     "
          11.45335   13 40 01.02   -17 35 22.8   19.4     "
          11.45849   13 40 00.65   -17 35 18.6   19.7     "

MPCの双曲線軌道要素、位置推算表は次のとおり、

Orbital elements:
    C/2021 C1 (Rankin)                                                          
Epoch 2020 Dec. 17.0 TT = JDT 2459200.5                                         
T 2020 Dec. 14.34946 TT                                 Rudenko                 
q   3.5054106            (2000.0)            P               Q                  
z  -0.0108935      Peri.  337.77395     -0.88267924     -0.46446896             
 +/-0.0033791      Node   186.88639     -0.28789027     +0.41371506             
e   1.0381862      Incl.  143.25269     -0.37147888     +0.78301241             
From 78 observations 2021 Feb. 11-24, mean residual 0".4.                       
                                                                                
Ephemeris:
Date    TT    R. A. (2000) Decl.     Delta      r    Elong.  Phase   m1
2021 01 25    13 55 04.2 -20 38 52   3.3710  3.5270    90.9    16.2  19.6
...
2021 02 09    13 42 40.0 -18 06 04   3.0891  3.5452   109.7    15.2  19.4
...
2021 02 17    13 33 21.9 -16 19 15   2.9527  3.5571   120.5    13.9  19.4
...
2021 02 23    13 25 09.0 -14 46 02   2.8615  3.5671   128.9    12.5  19.3
2021 02 24    13 23 40.9 -14 29 23   2.8474  3.5688   130.4    12.2  19.3
2021 02 25    13 22 11.1 -14 12 24   2.8336  3.5706   131.8    11.9  19.3
...
2021 03 03    13 12 39.8 -12 23 58   2.7593  3.5816   140.7    10.1  19.2
...
2021 03 11    12 58 41.3 -09 42 58   2.6847  3.5976   152.9     7.2  19.2
...
2021 03 26    12 30 09.6 -04 06 20   2.6353  3.6315   176.6     0.9  19.2

(MPEC 2021-D102、CBET 4934)

スレッド表示 | 古いものから 前のトピック | 次のトピック | トップ

投稿するにはまず登録を
 
© 1999 Tsutomu Seki.